Date,TemperatureHighF,TemperatureAvgF,TemperatureLowF,DewpointHighF,DewpointAvgF,DewpointLowF,HumidityHigh,HumidityAvg,HumidityLow,PressureMaxIn,PressureMinIn,WindSpeedMaxMPH,WindSpeedAvgMPH,GustSpeedMaxMPH,PrecipitationSumIn
2013-8-1,79.6,69.4,62.6,69.0,64.4,61.0,97,85,56,29.95,29.84,9,2,10,0.06
2013-8-2,78.5,67.9,58.3,64.0,59.6,54.0,98,77,48,29.97,29.88,10,2,17,0.00
2013-8-3,74.0,67.4,59.6,68.0,64.2,59.0,97,89,76,29.98,29.91,10,2,14,0.06
2013-8-4,73.9,61.8,51.1,61.0,56.0,51.0,99,83,50,30.09,29.98,8,1,13,0.17
2013-8-5,73.7,61.7,49.7,61.0,54.7,49.0,99,80,50,30.14,30.03,3,0,7,0.01
2013-8-6,84.1,68.1,52.8,64.0,58.3,52.0,98,74,42,30.04,29.96,7,1,9,0.00
2013-8-7,85.1,73.4,67.3,72.0,66.8,62.0,96,80,60,29.99,29.90,7,2,19,0.42
2013-8-8,86.5,74.8,66.1,75.0,69.7,64.0,96,85,65,29.96,29.89,7,1,10,0.22
2013-8-9,77.9,72.9,67.0,74.0,70.7,66.0,97,93,79,29.98,29.86,6,2,10,0.30
2013-8-10,81.5,70.2,61.0,68.0,64.1,58.0,99,83,59,30.08,29.99,5,1,8,0.00
2013-8-11,83.4,69.8,59.7,71.0,65.2,59.0,99,87,59,30.11,29.99,5,0,8,0.33
2013-8-12,82.7,72.7,64.3,69.0,66.4,64.0,99,82,57,30.04,29.87,7,1,11,0.01
2013-8-13,78.5,68.9,56.8,71.0,63.3,51.0,97,83,62,29.95,29.77,9,2,15,0.48
2013-8-14,67.7,57.1,47.5,56.0,51.7,47.0,99,83,62,30.15,29.95,9,1,12,0.00
2013-8-15,76.2,59.1,45.0,58.0,51.1,45.0,99,78,45,30.21,30.11,5,0,6,0.01
2013-8-16,79.7,64.1,49.2,60.0,54.9,49.0,98,76,45,30.17,30.12,4,1,8,0.00
2013-8-17,78.2,66.4,54.2,61.0,56.6,52.0,96,73,48,30.26,30.17,5,1,6,0.00
2013-8-18,75.1,68.4,63.9,65.0,60.4,55.0,95,76,65,30.22,30.12,5,1,13,0.00
2013-8-19,79.6,68.5,63.6,69.0,65.2,62.0,98,90,67,30.14,30.05,3,0,4,0.14
2013-8-20,83.2,68.8,56.2,67.0,61.6,56.0,99,81,47,30.19,30.10,3,0,5,0.01
2013-8-21,86.3,71.6,56.3,70.0,63.6,56.0,99,78,50,30.20,30.05,4,0,8,0.00
2013-8-22,81.3,70.6,64.5,72.0,67.1,64.0,97,89,67,30.09,29.96,9,2,26,0.64
2013-8-23,80.3,69.9,60.3,68.0,64.3,59.0,98,84,49,30.12,29.97,4,0,7,0.04
2013-8-24,83.5,67.7,54.1,66.0,59.1,54.0,99,77,36,30.30,30.13,2,0,6,0.00
2013-8-25,81.9,70.4,58.0,64.0,59.6,54.0,91,70,49,30.36,30.23,11,2,12,0.00
2013-8-26,83.4,71.0,58.9,68.0,63.3,58.0,97,78,59,30.25,30.01,9,2,13,0.00
2013-8-27,78.5,73.5,69.5,73.0,69.6,66.0,95,87,79,30.01,29.91,12,2,12,0.08
2013-8-28,73.5,70.5,67.9,72.0,69.7,67.0,99,97,95,29.93,29.81,6,0,10,3.17
2013-8-29,84.3,74.0,66.3,73.0,69.5,65.0,99,87,62,30.01,29.89,5,0,7,0.01
2013-8-30,86.1,73.6,62.0,72.0,67.8,62.0,99,83,60,30.00,29.82,10,1,11,0.00
2013-8-31,84.8,76.2,69.3,73.0,69.8,66.0,96,81,59,29.83,29.75,7,2,12,0.00